This demonstration page uses our WeatherBlox Daily Observations layout. Learn more.

Left ArrowRight Arrow

39.92423, -83.80882

Hourly Observations for June 7, 2018

Temp ( °F °C ) Dew Point ( °F °C ) Humidity (%) Winds ( mph kmh ) Pressure ( in mb ) Visibility ( mi km ) Precip ( " mm )
12:56 am 00:56 Clear 55 12.8 50 10 83 83 ESE 3 6 30.01 1016 10 16.0934 N/A
1:56 am 01:56 Clear 55 12.8 51 10.6 87 87 ESE 6 9 30.02 1017 10 16.0934 N/A
2:56 am 02:56 Clear 54 12.2 51 10.6 90 90 ESE 6 9 30.02 1017 10 16.0934 N/A
3:56 am 03:56 Clear 54 12.2 51 10.6 90 90 SE 8 13 30.02 1017 10 16.0934 N/A
4:56 am 04:56 Clear 54 12.2 50 10 87 87 SSE 9 15 30.01 1016 10 16.0934 N/A
5:56 am 05:56 Clear 54 12.2 50 10 87 87 undefined N/A 30.03 1017 10 16.0934 N/A
6:56 am 06:56 Sunny 55 12.8 51 10.6 87 87 SSE 7 11 30.05 1018 10 16.0934 N/A
7:56 am 07:56 Sunny 58 14.4 51 10.6 78 78 SSE 8 13 30.07 1018 10 16.0934 N/A
8:56 am 08:56 Sunny 62 16.7 53 11.7 73 73 SSE 9 15 30.08 1019 10 16.0934 N/A
9:56 am 09:56 Sunny 65 18.3 55 12.8 70 70 VRB 5 7 30.09 1019 10 16.0934 N/A
10:56 am 10:56 Sunny 69 20.6 57 13.9 66 66 VRB 7 11 30.08 1019 10 16.0934 N/A
11:56 am 11:56 Sunny 71 21.7 57 13.9 61 61 S 9 15 30.09 1019 10 16.0934 N/A
12:56 pm 12:56 Sunny 74 23.3 59 15 60 60 S 6 9 30.08 1019 10 16.0934 N/A
1:56 pm 13:56 Sunny 77 25 60 15.6 56 56 SSW 7 11 30.06 1018 10 16.0934 N/A
2:56 pm 14:56 Sunny 79 26.1 62 16.7 56 56 VRB 7 11 30.04 1017 10 16.0934 N/A
3:56 pm 15:56 Sunny 81 27.2 63 17.2 54 54 S 8 13 30.04 1017 10 16.0934 N/A
4:56 pm 16:56 Sunny 82 27.8 64 17.8 55 55 SW 8 13 30.04 1017 10 16.0934 N/A
5:56 pm 17:56 Sunny 83 28.3 64 17.8 53 53 SSW 12 19 30.03 1017 10 16.0934 N/A
6:56 pm 18:56 Sunny 82 27.8 65 18.3 56 56 SSW 8 13 30.03 1017 10 16.0934 N/A
7:56 pm 19:56 Sunny 80 26.7 64 17.8 58 58 S 6 9 30.04 1017 10 16.0934 N/A
8:56 pm 20:56 Sunny 77 25 64 17.8 64 64 S 6 9 30.04 1017 10 16.0934 N/A
9:56 pm 21:56 Clear 76 24.4 64 17.8 67 67 SSW 3 6 30.07 1018 10 16.0934 N/A
10:56 pm 22:56 Clear 75 23.9 65 18.3 71 71 W 9 15 30.09 1019 10 16.0934 N/A
11:56 pm 23:56 Clear 72 22.2 62 16.7 71 71 W 10 17 30.09 1019 10 16.0934 N/A

Powered by AerisWeather